Regional Weather Roundup
Issued by NWS

Home | Current Version | Previous Version | Graphics & Text | Print | Product List | Glossary On
Versions: 1 2 3 4 5 6 7 8 9 10 11 12 13 14 15 16 17 18 19 20 21 22 23 24 25 26 27 28 29 30 31 32 33 34 35 36 37 38 39 40 41 42 43 44 45 46 47 48 49 50
000
ASUS43 KDMX 200301
RWRIA

WEATHER ROUNDUP FOR IOWA
NATIONAL WEATHER SERVICE DES MOINES IA
1000 PM CDT SAT AUG 19 2017

NOTE: "FAIR" INDICATES FEW OR NO CLOUDS BELOW 12,000 FEET WITH NO
SIGNIFICANT WEATHER AND/OR OBSTRUCTIONS TO VISIBILITY.

* - THESE STATIONS ARE NOT NWS STATIONS...THUS NOT UNDER NWS
QUALITY CONTROL.  THEY ALSO DO NOT REPORT WEATHER SUCH
AS PRECIPITATION OR FOG.

IAZ001>003-012>014-020>022-031>034-043>046-200400-
   NORTHWEST IOWA

CITY           SKY/WX    TMP DP  RH WIND       PRES   REMARKS
CARROLL *      CLOUDY    68  64  88 SE6       29.92R
DENISON *      CLOUDY    70  66  88 SE5       29.91S
LE MARS *      CLOUDY    73  66  78 SE7       29.87R
ORANGE CITY *  CLOUDY    73  70  88 CALM      29.88S
SHELDON *      PTCLDY    68  64  88 SE5       29.87S
SIOUX CITY     CLOUDY    72  68  87 SE9       29.84F
SPENCER        CLOUDY    71  66  84 S9        29.90R
STORM LAKE *   CLOUDY    70  64  83 SE9       29.91S
$$

IAZ055>058-069>071-079>083-090>094-200400-
   SOUTHWEST IOWA

CITY           SKY/WX    TMP DP  RH WIND       PRES   REMARKS
ATLANTIC *     CLEAR     73  64  73 CALM      29.91R
AUDUBON *      CLEAR     68  64  88 CALM      29.94R
CLARINDA *       N/A     70  63  78 SW5       29.94R
COUNCIL BLFS * CLOUDY    73  66  78 SE10      29.89F
CRESTON *      CLEAR     68  63  83 S6        29.95R
HARLAN  *      CLOUDY    70  66  88 S5        29.94R
LAMONI         CLEAR     74  58  57 S5        29.94R
RED OAK *      MOCLDY    73  64  73 CALM      29.91R
SHENANDOAH *   PTCLDY    73  63  68 SE6       29.91R
$$

IAZ047>049-059>061-072>074-084-200400-
   CENTRAL IOWA

CITY           SKY/WX    TMP DP  RH WIND       PRES   REMARKS
AMES           CLEAR     67  67 100 SE6       29.92R
ANKENY *       CLEAR     70  64  83 CALM      29.93R
BOONE *        PTCLDY    68  64  88 SE7       29.92S
CHARITON *     CLEAR     73  59  60 SE5       29.93R
DES MOINES     PTCLDY    79  59  50 E7G24     29.92R HX  80
GRINNELL*      CLEAR     70  64  82 E5        29.96R
KNOXVILLE *    CLEAR     73  64  73 E6        29.92R
MARSHALLTOWN   PTCLDY    68  65  90 E7        29.93R
NEWTON *       CLEAR     72  66  83 SE8       29.94R
PELLA *        CLEAR     73  64  75 E3        29.94R
$$

IAZ004>006-015-016-023>025-035-036-200400-
   NORTH CENTRAL IOWA

CITY           SKY/WX    TMP DP  RH WIND       PRES   REMARKS
ALGONA *       MOCLDY    72  68  88 SE8       29.92R
CLARION *      CLOUDY    70  68  94 SE9       29.92F
ESTHERVILLE    PTCLDY    67  66  97 S7        29.90R
FORT DODGE *   PTCLDY    72  63  73 CALM      29.93R
MASON CITY     CLEAR     64  61  90 S6        29.95R
FOREST CITY *    N/A     64  63  94 SE7       29.93R
WEBSTER CITY * PTCLDY    68  64  88 SE7       29.90S
IOWA FALLS *   CLOUDY    68  65  91 SE5       29.95R
$$

IAZ007>011-017>019-026>030-037>042-050>054-066-200400-
   NORTHEAST IOWA

CITY           SKY/WX    TMP DP  RH WIND       PRES   REMARKS
CEDAR RAPIDS   CLEAR     67  64  90 SE3       29.94R
CHARLES CITY * CLEAR     66  66 100 SE5       29.95R
CLINTON *      CLEAR     65  62  90 E7        29.96S
DECORAH *      MOCLDY    68  61  77 CALM      29.95R
DUBUQUE        CLEAR     66  60  81 S3        29.98R
MONTICELLO *   CLEAR     63  63 100 CALM      29.96R
OELWEIN *      CLEAR     64  64 100 SE6       29.96S
WATERLOO       CLEAR     65  61  87 CALM      29.93R
$$

IAZ064-065-067-068-078-200400-
   EAST CENTRAL IOWA

CITY           SKY/WX    TMP DP  RH WIND       PRES   REMARKS
DAVENPORT      CLEAR     66  61  84 E5        29.98R
IOWA CITY      CLEAR     72  64  76 SE3       29.96R
MUSCATINE *    CLEAR     68  63  83 CALM      29.95R
QUAD CITIES    CLEAR     68  62  81 E3        29.95R
$$

IAZ062-063-075>077-085>089-095>099-200400-
   SOUTHEAST IOWA

CITY           SKY/WX    TMP DP  RH WIND       PRES   REMARKS
BURLINGTON     CLEAR     73  66  78 E5        29.94R
FAIRFIELD *    CLEAR     68  64  88 CALM      29.94R
FORT MADISON * CLEAR     70  66  88 SE3       29.95S
KEOKUK *       CLEAR     75  68  78 E8        29.93R
OSKALOOSA *      N/A     68  64  86 E7        29.94R
OTTUMWA        CLEAR     73  66  78 E8        29.92S
WASHINGTON *   CLEAR     66  64  94 E5        29.96R
$$

ABBREVIATIONS USED IN REMARKS
   TC - TEMPERATURES IN CELSIUS
  WCI - WIND CHILL INDEX
   HX - HEAT INDEX
  VSB - VISIBILITY
$$





USA.gov is the U.S. government's official web portal to all federal, state and local government web resources and services.